CO-66
1 32791U 08021J 14009.82484532 .00005207 00000-0 60750-3 0 8065
2 32791 097.7260 066.9007 0014393 351.8294 008.2685 14.85531241308537
RS-30
1 32953U 08025A 14009.75207965 .00000010 00000-0 00000 0 0 5448
2 32953 082.5054 299.7311 0018850 138.8443 221.4071 12.43041581255573
METEOR-M
1 35865U 09049A 14009.75759016 .00000012 00000-0 24812-4 0 1528
2 35865 098.5743 061.7990 0002148 180.6901 179.4272 14.21904540223826
RS-38
1 35869U 09049E 14009.75404632 .00000087 00000-0 58617-4 0 1031
2 35869 098.5671 061.6446 0004284 186.5083 173.6034 14.22171205223854
JUGNU
1 37839U 11058B 14008.64446913 .00000507 00000-0 12917-3 0 5389
2 37839 019.9614 141.8173 0019298 026.1096 088.7904 14.12229870115975
SRMSAT
1 37841U 11058D 14008.77805159 .00000502 00000-0 13228-3 0 5388
2 37841 019.9717 157.1428 0012234 334.1189 165.9120 14.10286747115829
RAX-2
1 37853U 11061D 14009.85866513 .00007302 00000-0 52810-3 0 6933
2 37853 101.7065 324.5255 0226619 153.7273 270.8233 14.86230687119111
AUBIESAT
1 37854U 11061E 14009.82952464 .00008905 00000-0 62607-3 0 6779
2 37854 101.7111 325.8365 0225645 151.7085 240.5946 14.87207076119142
HRBE
1 37855U 11061F 14009.08748963 .00010880 00000-0 76850-3 0 6865
2 37855 101.7107 324.3230 0227273 154.6894 269.8552 14.86705705119016
RS-39
1 38051U 11062C 14009.81828924 .00039443 00000-0 92255-3 0 1444
2 38051 051.6351 287.9914 0005841 293.8046 169.2191 15.41738236109548
E-STAR
1 38079U 12006C 14009.86129228 .00085748 44717-5 13699-2 0 7075
2 38079 069.4670 037.8242 0507954 219.2295 200.2718 14.73718539 99878
GOLIAT
1 38085U 12006J 14009.90147891 .00087366 44773-5 14071-2 0 7056
2 38085 069.4706 041.9774 0523361 221.2320 192.3498 14.70309389 99763
HORYU-2
1 38340U 12025D 14008.90421360 .00002260 00000-0 37088-3 0 7230
2 38340 098.2428 323.7039 0012353 326.3599 033.6798 14.71654906 88365
RS-40
1 38736U 12041D 14010.03311475 .00000010 00000-0 00000 0 0 4721
2 38736 082.4768 026.1517 0020394 232.9034 127.0187 12.42875446 65940
PROITERES
1 38756U 12047B 14009.76795278 .00001146 00000-0 17983-3 0 4693
2 38756 098.2370 095.4612 0012741 163.0265 197.1359 14.74571907 71834
BEESAT-3
1 39134U 13015E 14009.19608959 .00008331 00000-0 63573-3 0 4684
2 39134 064.8724 280.7363 0011853 333.0098 027.0436 15.02509475 39750
BEESAT-2
1 39136U 13015G 14008.87977019 .00007250 00000-0 55893-3 0 4557
2 39136 064.8805 281.8593 0011845 332.5824 027.4616 15.02236617 39705
CAPE-2
1 39380U 13064A 14008.73698866 .00005847 00000-0 26382-3 0 598
2 39380 040.5188 321.1768 0005327 287.5304 072.4918 15.21357193 7572
TRLBLAZER
1 39382U 13064C 14009.08189295 .00040097 00000-0 15996-2 0 640
2 39382 040.5060 318.4559 0004255 243.5638 116.4915 15.24418683 7628
TECHEDST3
1 39415U 98067DD 14009.85094287 .01237771 68033-3 42518-2 0 960
2 39415 051.6400 159.1223 0011681 307.0751 052.9165 15.89029954 7897
ZACUBE-1
1 39417U 13066B 14009.72451182 .00001962 00000-0 27422-3 0 1512
2 39417 097.7932 085.7370 0064278 038.3302 322.2435 14.77310186 7296
TRITON-1
1 39427U 13066M 14009.80663666 .00001453 00000-0 25364-3 0 410
2 39427 097.7839 084.8264 0120757 034.4674 326.4280 14.64721964 7200
DELFIN3XT
1 39428U 13066N 14008.86649543 .00002351 00000-0 42040-3 0 434
2 39428 097.7848 083.7456 0132082 037.6483 323.3842 14.62217255 7042
GOMX-1
1 39430U 13066Q 14009.75318498 .00001295 00000-0 25618-3 0 1202
2 39430 097.7814 084.1243 0159098 035.2542 325.9035 14.56176976 7154
$50SAT
1 39436U 13066W 14009.02032560 .00013118 00000-0 15348-2 0 496
2 39436 097.7957 085.5893 0031258 055.1735 305.2363 14.84835987 7213
PUCPSAT-1
1 39442U 13066AC 14009.27163629 .00003206 00000-0 37851-3 0 357
2 39442 097.7972 085.8847 0036835 048.2042 312.2306 14.84904631 6036
